Northfield, Minnesota, United States (55057)
Lat: 44.46N, Lon: 93.16W
Wx Zone: MNZ077
Local Info
Past Weather Observations for Today

NOTE: This archive is for the closest National Weather Service station to Northfield. Information may differ from the station used for current weather conditions.

Click here for Long-term Archive

Time Weather Temperature Dewpoint Humidity Pressure Winds Precip Visibility
19:05
Clear
68°F / 20°C 57°F / 14°C 69% 29.92 in
(1013 mb)
ENE 3.5 mph
(ENE 6 kph)
- 10SM
18:45
Clear
70°F / 21°C 55°F / 13°C 60% 29.92 in
(1013 mb)
NE 4.6 mph
(NE 7 kph)
- 10SM
18:25
Clear
72°F / 22°C 57°F / 14°C 61% 29.92 in
(1013 mb)
NE 6.9 mph
(NE 11 kph)
- 10SM
18:05
Clear
72°F / 22°C 57°F / 14°C 61% 29.92 in
(1013 mb)
NE 8.1 mph
(NE 13 kph)
- 10SM
17:25
Clear
73°F / 23°C 57°F / 14°C 57% 29.89 in
(1012 mb)
NE 5.8 mph
(NE 9 kph)
- 10SM
17:05
Clear
73°F / 23°C 57°F / 14°C 57% 29.89 in
(1012 mb)
NE 6.9 mph
(NE 11 kph)
- 10SM
16:45
Clear
73°F / 23°C 57°F / 14°C 57% 29.92 in
(1013 mb)
NE 6.9 mph
(NE 11 kph)
- 10SM
16:25
Clear
73°F / 23°C 57°F / 14°C 57% 29.92 in
(1013 mb)
NE 5.8 mph
(NE 9 kph)
- 10SM
16:05
Clear
75°F / 24°C 57°F / 14°C 54% 29.92 in
(1013 mb)
NNE 3.5 mph
(NNE 6 kph)
- 10SM
15:45
Clear
75°F / 24°C 57°F / 14°C 54% 29.92 in
(1013 mb)
NNE 3.5 mph
(NNE 6 kph)
- 10SM
15:25
Clear
75°F / 24°C 57°F / 14°C 54% 29.92 in
(1013 mb)
NE 9.2 mph
(NE 15 kph)
- 10SM
15:05
Clear
75°F / 24°C 57°F / 14°C 54% 29.92 in
(1013 mb)
N 4.6 mph
(N 7 kph)
- 10SM
14:45
Clear
73°F / 23°C 57°F / 14°C 57% 29.92 in
(1013 mb)
NNE 6.9 mph
(NNE 11 kph)
- 10SM
14:25
Clear
75°F / 24°C 57°F / 14°C 54% 29.92 in
(1013 mb)
N 8.1 mph
(N 13 kph)
- 10SM
14:05
Partly Cloudy
73°F / 23°C 57°F / 14°C 57% 29.92 in
(1013 mb)
N 8.1 mph
(N 13 kph)
- 10SM
13:45
Partly Cloudy
73°F / 23°C 59°F / 15°C 61% 29.92 in
(1013 mb)
NE 8.1 mph
(NE 13 kph)
- 10SM
13:25
Partly Cloudy
73°F / 23°C 57°F / 14°C 57% 29.92 in
(1013 mb)
NE 8.1 mph
(NE 13 kph)
- 10SM
13:05
Partly Cloudy
73°F / 23°C 57°F / 14°C 57% 29.95 in
(1014 mb)
NNE 5.8 mph
(NNE 9 kph)
- 10SM
12:45
Clear
73°F / 23°C 59°F / 15°C 61% 29.95 in
(1014 mb)
NNE 6.9 mph
(NNE 11 kph)
- 10SM
12:25
Partly Cloudy
72°F / 22°C 59°F / 15°C 65% 29.95 in
(1014 mb)
NE 4.6 mph
(NE 7 kph)
- 10SM
12:05
Mostly Cloudy
72°F / 22°C 59°F / 15°C 65% 29.95 in
(1014 mb)
NE 9.2 mph
(NE 15 kph)
- 10SM
11:45
Mostly Cloudy
72°F / 22°C 61°F / 16°C 69% 29.95 in
(1014 mb)
NE 10.4 mph
(NE 17 kph)
- 10SM
11:25
Mostly Cloudy
70°F / 21°C 61°F / 16°C 73% 29.95 in
(1014 mb)
NE 9.2 mph
(NE 15 kph)
- 10SM
11:05
Mostly Cloudy
70°F / 21°C 61°F / 16°C 73% 29.95 in
(1014 mb)
NNE 10.4 mph
(NNE 17 kph)
- 10SM
10:45
Mostly Cloudy
70°F / 21°C 61°F / 16°C 73% 29.95 in
(1014 mb)
NE 9.2 mph
(NE 15 kph)
- 10SM
10:25
Overcast
70°F / 21°C 61°F / 16°C 73% 29.95 in
(1014 mb)
NNE 9.2 mph
(NNE 15 kph)
- 10SM
10:05
Mostly Cloudy
72°F / 22°C 61°F / 16°C 69% 29.95 in
(1014 mb)
NE 4.6 mph
(NE 7 kph)
- 10SM
09:45
Overcast
70°F / 21°C 61°F / 16°C 73% 29.95 in
(1014 mb)
NE 4.6 mph
(NE 7 kph)
- 10SM
09:25
Mostly Cloudy
70°F / 21°C 61°F / 16°C 73% 29.92 in
(1013 mb)
NE 6.9 mph
(NE 11 kph)
- 10SM
09:05
Partly Cloudy
70°F / 21°C 61°F / 16°C 73% 29.92 in
(1013 mb)
NE 8.1 mph
(NE 13 kph)
- 10SM
08:45
Partly Cloudy
68°F / 20°C 61°F / 16°C 78% 29.92 in
(1013 mb)
NE 5.8 mph
(NE 9 kph)
- 10SM
08:25
Partly Cloudy
68°F / 20°C 63°F / 17°C 83% 29.92 in
(1013 mb)
NE 5.8 mph
(NE 9 kph)
- 10SM
08:05
Partly Cloudy
66°F / 19°C 63°F / 17°C 88% 29.92 in
(1013 mb)
N 5.8 mph
(N 9 kph)
- 7SM
07:45
Overcast
64°F / 18°C 63°F / 17°C 94% 29.92 in
(1013 mb)
N 5.8 mph
(N 9 kph)
- 5SM
07:25
Overcast
64°F / 18°C 63°F / 17°C 94% 29.92 in
(1013 mb)
NE 4.6 mph
(NE 7 kph)
- 5SM
07:05
Overcast
64°F / 18°C 63°F / 17°C 94% 29.92 in
(1013 mb)
NE 6.9 mph
(NE 11 kph)
- 4SM
06:45
Overcast
63°F / 17°C 61°F / 16°C 94% 29.92 in
(1013 mb)
Calm - 3SM
06:25
Mostly Cloudy
63°F / 17°C 61°F / 16°C 94% 29.92 in
(1013 mb)
Calm - 2 1/2SM
06:05
Overcast
61°F / 16°C 59°F / 15°C 94% 29.89 in
(1012 mb)
Calm - 3SM
05:45
Partly Cloudy
59°F / 15°C 57°F / 14°C 94% 29.89 in
(1012 mb)
Calm - 1 3/4SM
05:25
Obscured
57°F / 14°C 55°F / 13°C 94% 29.89 in
(1012 mb)
Calm - 1SM
05:05
Obscured
57°F / 14°C 55°F / 13°C 94% 29.89 in
(1012 mb)
Calm - 1/4SM
04:45
Mostly Cloudy
57°F / 14°C 55°F / 13°C 94% 29.86 in
(1011 mb)
Calm - 1/4SM
04:25
Obscured
57°F / 14°C 55°F / 13°C 94% 29.86 in
(1011 mb)
Calm - 3/4SM
04:05
Obscured
59°F / 15°C 57°F / 14°C 94% 29.86 in
(1011 mb)
Calm - 1/2SM
03:45
Obscured
57°F / 14°C 55°F / 13°C 94% 29.83 in
(1010 mb)
Calm - 1/2SM
03:25
Obscured
57°F / 14°C 55°F / 13°C 94% 29.83 in
(1010 mb)
Calm - 1 1/4SM
03:05
Mostly Cloudy
59°F / 15°C 57°F / 14°C 94% 29.83 in
(1010 mb)
Calm - 1/4SM
02:45
Mostly Cloudy
59°F / 15°C 57°F / 14°C 94% 29.83 in
(1010 mb)
Calm - 1/2SM
02:05
Mostly Cloudy
61°F / 16°C 57°F / 14°C 88% 29.83 in
(1010 mb)
Calm - 5SM
01:45
Overcast
59°F / 15°C 57°F / 14°C 94% 29.83 in
(1010 mb)
Calm - 7SM
01:25
Mostly Cloudy
61°F / 16°C 57°F / 14°C 88% 29.83 in
(1010 mb)
Calm - 4SM
01:05
Partly Cloudy
61°F / 16°C 57°F / 14°C 88% 29.83 in
(1010 mb)
Calm - 5SM
00:45
Mostly Cloudy
61°F / 16°C 57°F / 14°C 88% 29.83 in
(1010 mb)
Calm - 4SM
00:25
Mostly Cloudy
61°F / 16°C 59°F / 15°C 94% 29.83 in
(1010 mb)
Calm - 4SM
00:05
Partly Cloudy
61°F / 16°C 57°F / 14°C 88% 29.83 in
(1010 mb)
Calm - 4SM
Time Weather Temperature Dewpoint Humidity Pressure Winds Precip Visibility


Weather for websites

WeatherForYou.com, LLC is not responsible for any damages or problems caused by this service. Current weather conditions are obtained from the closest station including government and personal stations which may have varying degrees of accuracy. Weather forecasts are derived from the NOAA NDFD. Like all things, this site belongs to Jesus Christ... He just trusts us to maintain it. If you have any questions or comments email webmaster@weatherforyou.com

Copyright © 2015, WeatherForYou.com LLC. All rights reserved.